Terminal Aerodrome Forecast
Issued by NWS

Home | Current Version | Previous Version | Graphics & Text | Print | Product List | Glossary On
Versions: 1 2 3 4 5 6 7 8 9 10 11 12 13 14 15 16 17 18 19
000
FTUS42 KMHX 261143 AAA
TAFISO
TAF AMD
KISO 261143Z 2612/2712 18005KT 3SM -RA SCT005 BKN035
     FM261400 20012G23KT 5SM -SHRA SCT015 BKN030
     FM261800 21014G24KT P6SM BKN050
     FM270000 18008KT P6SM OVC100
     FM270600 21006KT 5SM -RA BR OVC010
      AMD LTD TO CLD VIS AND WIND=

USA.gov is the U.S. government's official web portal to all federal, state and local government web resources and services.